Milwaukee, WI

7:06 AM CST on November 19, 2019 (GMT -0600)
Gen Mitchell International

Weather History for KMKE - September, 2019

Change the Weather History Date:

Friday, September 13, 2019

  Actual Average Record
Temperature  
Mean Temperature 70 °F 64 °F  
Max Temperature 78 °F 73 °F 96 °F (1939)
Min Temperature 61 °F 56 °F 37 °F (1964)
Degree Days  
Heating Degree Days 0 3  
Month to date heating degree days 8 26  
Since 1 July heating degree days 10 52  
Cooling Degree Days 4 2  
Month to date cooling degree days 48 46  
Year to date cooling degree days 654 611  
Growing Degree Days 20 (Base 50)    
Moisture  
Dew Point 62 °F    
Average Humidity 78    
Maximum Humidity 93    
Minimum Humidity 49    
Precipitation  
Precipitation 2.39 in 0.11 in 2.52 in (1961)
Month to date precipitation 5.05 1.35  
Year to date precipitation 33.46 25.53  
Snow  
Snow 0.00 in 0.00 in 0.00 in (2018)
Month to date snowfall 0.0 0.0  
Since 1 July snowfall 0.0 0.0  
Since 1 September snowfall 0.0 0.0  
Snow Depth 0.00 in    
Sea Level Pressure  
Sea Level Pressure 29.98 in    
Wind  
Wind Speed 11 mph ()    
Max Wind Speed 29 mph    
Max Gust Speed 44 mph    
Visibility 7.8 miles    
Events Fog , Rain , Thunderstorm    
T = Trace of Precipitation, MM = Missing Value Source: Averaged Metar Reports

Daily Weather History Graph

Daily Weather History Graph

Search for Another Location

Airport or City:

Astronomy

Sep. 13, 2019 Rise Set
Actual Time 6:28 AM CDT 7:05 PM CDT
Civil Twilight 6:00 AM CDT 7:33 PM CDT
Nautical Twilight 5:26 AM CDT 8:07 PM CDT
Astronomical Twilight 4:51 AM CDT 8:42 PM CDT
Moon 7:20 PM CDT (9/13) 5:42 AM CDT (9/13)
Length of Visible Light 13h 33m
Length of Day
12h 36m
Full, 100% of the Moon is Illuminated
Sep 13
Full
Sep 13
Full
Sep 21
Last Quarter
Sep 28
New
Oct 5
First Quarter

Hourly Weather History & Observations

Time (CDT) Temp. Dew Point Humidity Pressure Visibility Wind Dir Wind Speed Gust Speed Precip Events Conditions
12:30 AM 70.0 °F 66.9 °F 90% 30.02 in 1.8 mi NE 8.1 mph - 0.18 in Rain , Thunderstorm Heavy Thunderstorms and Rain
12:41 AM 70.0 °F 66.9 °F 90% 30.03 in 0.8 mi Calm Calm - 0.51 in Rain , Thunderstorm Heavy Thunderstorms and Rain
12:52 AM 70.0 °F 66.9 °F 90% 30.05 in 0.5 mi SW 20.7 mph 33.4 mph 1.09 in Fog , Rain , Thunderstorm Heavy Thunderstorms and Rain
12:59 AM 69.1 °F 66.0 °F 90% 30.03 in 0.5 mi WSW 13.8 mph 26.5 mph 0.41 in Fog , Rain , Thunderstorm Heavy Thunderstorms and Rain
1:06 AM 69.1 °F 66.0 °F 90% 30.02 in 1.5 mi WSW 10.4 mph 23.0 mph 0.57 in Rain , Thunderstorm Heavy Thunderstorms and Rain
1:12 AM 69.1 °F 66.0 °F 90% 30.00 in 3.0 mi SSW 5.8 mph 18.4 mph 0.63 in Rain , Thunderstorm Light Thunderstorms and Rain
1:34 AM 69.1 °F 66.0 °F 90% 29.98 in 5.0 mi SSE 5.8 mph - 0.68 in Rain , Thunderstorm Light Thunderstorms and Rain
1:52 AM 69.1 °F 66.0 °F 90% 29.97 in 5.0 mi SSE 11.5 mph - 0.77 in Rain , Thunderstorm Light Thunderstorms and Rain
2:52 AM 70.0 °F 66.9 °F 90% 29.95 in 5.0 mi South 8.1 mph - 0.21 in Rain , Thunderstorm Light Thunderstorms and Rain
3:38 AM 69.1 °F 66.9 °F 93% 29.94 in 5.0 mi South 9.2 mph - 0.11 in Rain Rain
3:52 AM 70.0 °F 66.9 °F 90% 29.92 in 5.0 mi South 11.5 mph - 0.16 in Rain Rain
4:33 AM 69.1 °F 66.9 °F 93% 29.93 in 6.0 mi South 9.2 mph - 0.14 in Rain Light Rain
4:41 AM 70.0 °F 66.9 °F 90% 29.93 in 10.0 mi South 11.5 mph - 0.14 in Rain Light Rain
4:52 AM 70.0 °F 66.9 °F 90% 29.93 in 10.0 mi South 10.4 mph 20.7 mph 0.14 in Rain Light Rain
5:21 AM 70.0 °F 66.9 °F 90% 29.92 in 10.0 mi South 13.8 mph 23.0 mph 0.01 in Rain Light Rain
5:38 AM 70.0 °F 66.9 °F 90% 29.92 in 10.0 mi SSW 12.7 mph 23.0 mph 0.02 in Rain Light Rain
5:52 AM 70.0 °F 66.9 °F 90% 29.92 in 10.0 mi SSW 13.8 mph - 0.02 in   Overcast
6:52 AM 70.0 °F 66.9 °F 90% 29.94 in 10.0 mi South 10.4 mph - N/A   Overcast
7:32 AM 70.0 °F 66.9 °F 90% 29.93 in 10.0 mi SSW 10.4 mph - N/A   Mostly Cloudy
7:52 AM 71.1 °F 66.9 °F 87% 29.93 in 10.0 mi SSW 8.1 mph - N/A   Mostly Cloudy
8:52 AM 71.1 °F 66.9 °F 87% 29.94 in 10.0 mi SW 12.7 mph - N/A   Mostly Cloudy
9:52 AM 73.0 °F 66.0 °F 79% 29.93 in 10.0 mi SW 13.8 mph - N/A   Scattered Clouds
10:52 AM 75.0 °F 64.0 °F 69% 29.94 in 10.0 mi SW 19.6 mph 32.2 mph N/A   Mostly Cloudy
11:52 AM 75.9 °F 60.1 °F 58% 29.94 in 10.0 mi WSW 18.4 mph 33.4 mph N/A   Scattered Clouds
12:52 PM 75.9 °F 57.9 °F 54% 29.94 in 10.0 mi SW 25.3 mph 40.3 mph N/A   Scattered Clouds
1:52 PM 75.9 °F 55.9 °F 50% 29.94 in 10.0 mi WSW 21.9 mph 39.1 mph N/A   Scattered Clouds
2:52 PM 73.9 °F 54.0 °F 50% 29.96 in 10.0 mi West 25.3 mph 40.3 mph N/A   Mostly Cloudy
3:52 PM 70.0 °F 53.1 °F 55% 29.97 in 10.0 mi West 25.3 mph 40.3 mph N/A   Scattered Clouds
4:52 PM 70.0 °F 51.1 °F 51% 29.99 in 10.0 mi WSW 23.0 mph 35.7 mph N/A   Scattered Clouds
5:52 PM 69.1 °F 51.1 °F 53% 30.00 in 10.0 mi West 12.7 mph 26.5 mph N/A   Mostly Cloudy
6:52 PM 66.9 °F 48.9 °F 52% 30.02 in 10.0 mi West 15.0 mph 28.8 mph N/A   Scattered Clouds
7:52 PM 64.9 °F 50.0 °F 58% 30.04 in 10.0 mi West 12.7 mph 23.0 mph N/A   Partly Cloudy
8:52 PM 64.0 °F 51.1 °F 63% 30.05 in 10.0 mi West 10.4 mph - N/A   Partly Cloudy
9:52 PM 62.1 °F 52.0 °F 70% 30.07 in 10.0 mi SW 8.1 mph - N/A   Partly Cloudy
10:52 PM 62.1 °F 53.1 °F 72% 30.08 in 10.0 mi SW 8.1 mph - N/A   Partly Cloudy
11:52 PM 62.1 °F 53.1 °F 72% 30.09 in 10.0 mi West 10.4 mph - N/A   Partly Cloudy